Location: Fours
(44.3167°N, 6.7000°E)
Time: 10:34:14
(UTC+00:00)

Cosmos 2278 - Pass Details

Date: 16 October 2021
Orbit: 838 x 854 km, 71.1° (Epoch: 08 December)

Event Time Altitude Azimuth Distance (km) Brightness Sun altitude
Rises 17:43:47 0° 182° (S) 3,381 6.9 -10.9°
Reaches altitude 10° 17:46:19 10° 176° (S) 2,453 6.1 -11.3°
Maximum altitude 17:51:35 42° 107° (ESE) 1,185 4.0 -12.3°
Drops below altitude 10° 17:56:54 10° 38° (NE) 2,479 5.8 -13.2°
Sets 17:59:28 0° 32° (NNE) 3,421 6.6 -13.7°
